QPF
0.02 0.02 0.02 0.01 0.09 0.17 0.23 0.31 0.30 0.12 0.04 0.22 0.13 0.23 0.31 0.24 0.38 0.04 0.01 0.01 0.02 0.02 0.02 0.01 0.03 0.04 0.07 0.05 0.01 0.01 0.00 0.00 0.00 0.00 0.00 0.00 0.00 0.00 0.00 0.00 0.00 0.00
0.03 0.02 0.02 0.00 0.04 0.07 0.10 0.15 0.14 0.40 0.17 0.39 0.65 0.36 0.49 0.63 0.28 0.20 0.03 0.00 0.00 0.01 0.00 0.01 0.00 0.00 0.01 0.02 0.06 0.00 0.00 0.00 0.00 0.00 0.01 0.00 0.00 0.00 0.00 0.00 0.00 0.00
0.07 0.12 0.03 0.02 0.04 0.05 0.10 0.23 0.35 0.29 0.23 0.37 1.12 0.71 0.64 0.84 0.23 0.33 0.24 0.10 0.01 0.00 0.00 0.00 0.06 0.06 0.02 0.02 0.02 0.00 0.00 0.00 0.00 0.00 0.00 0.00 0.00 0.00 0.00 0.00 0.00 0.00
0.16 0.28 0.13 0.17 0.06 0.05 0.07 0.19 0.34 0.37 0.22 0.32 0.62 0.53 0.60 0.42 0.34 0.26 0.21 0.11 0.13 0.03 0.00 0.01 0.02 0.04 0.05 0.03 0.04 0.01 0.00 0.00 0.01 0.00 0.00 0.00 0.00 0.00 0.00 0.00 0.00 0.00
0.02 0.03 0.11 0.07 0.14 0.10 0.35 0.25 0.07 0.18 0.46 0.39 0.30 0.13 0.37 0.28 0.32 0.26 0.27 0.23 0.23 0.24 0.10 0.01 0.01 0.00 0.00 0.00 0.00 0.00 0.00 0.07 0.01 0.00 0.00 0.00 0.00 0.00 0.00 0.00 0.00 0.00
0.02 0.03 0.03 0.11 0.36 0.54 0.04 0.01 0.03 0.14 0.10 0.04 0.05 0.05 0.03 0.17 0.22 0.33 0.37 0.26 0.21 0.15 0.28 0.09 0.00 0.00 0.00 0.00 0.00 0.00 0.03 0.00 0.00 0.00 0.00 0.00 0.00 0.00 0.00 0.00 0.00 0.00
0.03 0.03 0.03 0.09 0.39 0.24 0.02 0.04 0.10 0.01 0.01 0.04 0.02 0.05 0.07 0.07 0.09 0.17 0.35 0.38 0.40 0.29 0.33 0.29 0.02 0.00 0.00 0.00 0.00 0.00 0.00 0.00 0.00 0.00 0.00 0.00 0.00 0.00 0.00 0.00 0.00 0.00
0.03 0.02 0.02 0.18 0.21 0.05 0.01 0.01 0.03 0.02 0.02 0.02 0.05 0.05 0.07 0.08 0.08 0.07 0.22 0.22 0.27 0.15 0.05 0.05 0.12 0.00 0.00 0.00 0.00 0.00 0.00 0.00 0.00 0.00 0.00 0.00 0.00 0.00 0.00 0.00 0.00 0.00
0.01 0.02 0.02 0.02 0.04 0.02 0.01 0.01 0.01 0.01 0.01 0.02 0.02 0.04 0.07 0.08 0.08 0.07 0.18 0.14 0.08 0.10 0.09 0.01 0.02 0.02 0.00 0.00 0.00 0.00 0.00 0.00 0.00 0.00 0.00 0.00 0.00 0.00 0.00 0.00 0.00 0.00
0.00 0.01 0.03 0.02 0.02 0.01 0.01 0.01 0.01 0.01 0.01 0.02 0.03 0.03 0.03 0.06 0.08 0.09 0.24 0.08 0.12 0.08 0.05 0.01 0.01 0.00 0.00 0.00 0.00 0.00 0.00 0.00 0.00 0.00 0.00 0.00 0.00 0.00 0.00 0.00 0.00 0.00
0.00 0.00 0.02 0.02 0.02 0.01 0.00 0.00 0.01 0.01 0.01 0.01 0.01 0.03 0.03 0.04 0.07 0.09 0.13 0.10 0.10 0.06 0.03 0.01 0.00 0.00 0.00 0.00 0.00 0.00 0.00 0.00 0.00 0.00 0.00 0.00 0.00 0.00 0.00 0.00 0.00 0.00
0.00 0.00 0.01 0.03 0.03 0.05 0.06 0.02 0.02 0.09 0.28 0.28 0.04 0.07 0.03 0.03 0.05 0.08 0.09 0.10 0.10 0.05 0.05 0.01 0.00 0.00 0.00 0.00 0.01 0.00 0.00 0.00 0.00 0.00 0.00 0.00 0.00 0.00 0.00 0.00 0.00 0.00
0.00 0.00 0.00 0.01 0.02 0.03 0.15 0.01 0.03 0.06 0.22 0.17 0.13 0.10 0.01 0.03 0.04 0.06 0.08 0.07 0.06 0.04 0.02 0.01 0.00 0.00 0.00 0.00 0.00 0.00 0.00 0.00 0.00 0.00 0.00 0.00 0.00 0.00 0.00 0.00 0.00 0.00
0.00 0.00 0.00 0.00 0.01 0.02 0.08 0.45 0.33 0.34 0.19 0.12 0.10 0.00 0.00 0.01 0.03 0.06 0.08 0.05 0.03 0.02 0.01 0.00 0.00 0.00 0.00 0.00 0.00 0.00 0.00 0.00 0.00 0.00 0.00 0.00 0.00 0.00 0.00 0.06 0.04 0.00
0.00 0.00 0.00 0.00 0.00 0.00 0.01 0.07 0.05 0.01 0.01 0.03 0.10 0.18 0.43 0.02 0.02 0.06 0.07 0.04 0.02 0.01 0.00 0.00 0.00 0.00 0.00 0.00 0.00 0.00 0.00 0.00 0.00 0.00 0.00 0.00 0.00 0.00 0.00 0.00 0.00 0.00
0.00 0.00 0.00 0.00 0.00 0.00 0.00 0.00 0.00 0.02 0.09 0.21 0.13 0.03 0.02 0.01 0.02 0.05 0.08 0.07 0.02 0.01 0.00 0.00 0.00 0.00 0.00 0.00 0.00 0.00 0.00 0.00 0.00 0.00 0.00 0.00 0.00 0.00 0.00 0.00 0.00 0.00
0.00 0.00 0.00 0.01 0.00 0.00 0.00 0.00 0.00 0.01 0.02 0.04 0.09 0.05 0.09 0.04 0.00 0.02 0.03 0.04 0.03 0.01 0.00 0.00 0.00 0.00 0.00 0.00 0.00 0.00 0.00 0.00 0.00 0.00 0.00 0.00 0.00 0.00 0.00 0.00 0.00 0.00
0.00 0.00 0.00 0.00 0.00 0.00 0.01 0.01 0.01 0.01 0.01 0.02 0.06 0.33 0.08 0.05 0.03 0.01 0.01 0.01 0.02 0.01 0.01 0.00 0.00 0.00 0.00 0.00 0.00 0.00 0.00 0.00 0.00 0.00 0.00 0.00 0.00 0.00 0.00 0.00 0.00 0.00
0.00 0.00 0.00 0.00 0.01 0.01 0.01 0.03 0.02 0.01 0.18 0.67 0.25 0.15 0.12 0.05 0.04 0.02 0.01 0.01 0.02 0.02 0.01 0.01 0.00 0.00 0.00 0.00 0.00 0.00 0.00 0.00 0.00 0.00 0.00 0.00 0.00 0.00 0.00 0.00 0.00 0.00
0.00 0.00 0.00 0.00 0.02 0.02 0.01 0.03 0.06 0.17 0.31 0.23 0.54 0.70 0.32 0.15 0.03 0.02 0.01 0.01 0.01 0.02 0.02 0.01 0.00 0.00 0.00 0.00 0.00 0.00 0.00 0.00 0.00 0.00 0.00 0.00 0.00 0.00 0.00 0.00 0.00 0.00
0.00 0.00 0.00 0.00 0.00 0.03 0.05 0.04 0.12 0.52 0.50 0.68 0.96 0.61 0.38 0.18 0.07 0.02 0.01 0.01 0.01 0.01 0.01 0.01 0.01 0.00 0.00 0.00 0.00 0.00 0.00 0.00 0.00 0.00 0.00 0.00 0.00 0.00 0.00 0.00 0.00 0.00
0.00 0.00 0.00 0.00 0.01 0.01 0.03 0.09 0.09 0.10 0.18 0.17 0.16 0.14 0.16 0.15 0.10 0.05 0.01 0.00 0.00 0.00 0.00 0.00 0.00 0.00 0.00 0.00 0.00 0.00 0.00 0.00 0.00 0.00 0.00 0.00 0.00 0.00 0.00 0.00 0.00 0.00
0.00 0.00 0.00 0.01 0.00 0.01 0.03 0.08 0.17 0.15 0.20 0.26 0.35 0.22 0.17 0.33 0.10 0.05 0.03 0.10 0.01 0.00 0.00 0.00 0.00 0.00 0.00 0.00 0.00 0.00 0.00 0.00 0.00 0.00 0.00 0.00 0.00 0.00 0.00 0.00 0.00 0.00
0.00 0.00 0.00 0.02 0.02 0.01 0.03 0.07 0.16 0.20 0.24 0.37 0.41 0.33 0.22 0.26 0.30 0.10 0.10 0.14 0.29 0.14 0.00 0.00 0.01 0.00 0.00 0.00 0.00 0.00 0.00 0.00 0.00 0.00 0.00 0.00 0.00 0.00 0.00 0.00 0.00 0.00
0.00 0.00 0.00 0.00 0.01 0.02 0.05 0.11 0.17 0.22 0.35 0.31 0.49 0.55 0.40 0.38 0.41 0.26 0.27 0.13 0.26 0.27 0.08 0.07 0.07 0.00 0.00 0.00 0.00 0.00 0.00 0.00 0.00 0.00 0.00 0.00 0.00 0.00 0.00 0.00 0.00 0.00
0.00 0.00 0.00 0.00 0.01 0.02 0.07 0.15 0.25 0.35 0.31 0.47 0.46 0.60 0.71 0.54 0.41 0.35 0.20 0.13 0.09 0.21 0.23 0.18 0.05 0.00 0.00 0.00 0.00 0.00 0.00 0.00 0.00 0.00 0.00 0.00 0.00 0.00 0.00 0.00 0.00 0.00
MSLP
1014.78 1014.74 1014.90 1014.94 1014.78 1014.90 1015.06 1015.14 1015.06 1015.06 1015.26 1015.42 1015.58 1015.70 1015.62 1015.54 1015.58 1015.58 1015.54 1015.70 1015.94 1016.26 1016.54 1016.82 1017.06 1017.42 1017.74 1018.14 1018.14 1017.86 1018.06 1018.22 1018.42 1018.58 1018.74 1018.98 1019.22 1019.46 1019.66 1019.82 1019.94 1020.02
1014.38 1014.18 1013.90 1014.14 1014.38 1014.54 1014.78 1014.98 1014.94 1015.02 1015.18 1015.34 1015.50 1015.74 1015.66 1015.74 1015.98 1016.22 1015.98 1015.86 1016.02 1016.22 1016.46 1016.66 1016.86 1017.18 1017.46 1017.78 1018.14 1018.02 1017.90 1018.10 1018.30 1018.38 1018.66 1018.86 1018.98 1019.18 1019.34 1019.46 1019.58 1019.82
1014.18 1014.06 1013.86 1013.78 1013.70 1013.78 1014.14 1014.58 1014.98 1015.14 1015.26 1015.26 1015.30 1015.22 1014.94 1014.86 1015.18 1015.86 1016.26 1016.22 1016.10 1016.14 1016.30 1016.50 1016.70 1016.94 1017.14 1017.42 1017.82 1017.66 1017.70 1017.94 1018.14 1018.30 1018.50 1018.66 1018.74 1018.94 1019.10 1019.30 1019.50 1019.66
1014.30 1014.26 1014.22 1014.10 1014.10 1014.26 1014.34 1014.30 1014.38 1014.78 1015.30 1015.62 1015.30 1014.90 1014.78 1014.62 1014.62 1014.78 1015.30 1015.90 1016.30 1016.26 1016.26 1016.38 1016.50 1016.70 1016.82 1017.18 1017.66 1017.58 1017.54 1017.66 1017.82 1018.10 1018.30 1018.46 1018.58 1018.66 1018.94 1019.18 1019.42 1019.66
1014.58 1014.50 1014.34 1013.98 1013.74 1013.70 1013.70 1013.74 1014.02 1014.30 1014.78 1015.30 1015.38 1015.10 1014.94 1014.90 1014.82 1014.90 1015.02 1015.18 1015.74 1016.38 1016.50 1016.22 1016.34 1016.46 1016.62 1016.82 1017.10 1017.38 1017.42 1017.66 1017.94 1018.10 1018.22 1018.38 1018.54 1018.62 1018.86 1019.06 1019.34 1019.54
1014.50 1014.42 1014.22 1013.94 1013.62 1013.42 1013.50 1013.62 1013.74 1013.94 1014.02 1014.38 1014.70 1014.74 1014.70 1014.70 1014.70 1014.74 1014.90 1015.06 1015.14 1015.78 1016.54 1016.14 1016.10 1016.22 1016.42 1016.54 1016.90 1017.10 1017.38 1017.58 1017.82 1017.98 1018.18 1018.30 1018.50 1018.62 1018.74 1018.94 1019.14 1019.38
1014.54 1014.42 1014.30 1013.90 1013.38 1013.14 1013.62 1013.66 1013.38 1013.58 1013.82 1013.98 1014.22 1014.34 1014.34 1014.38 1014.42 1014.46 1014.62 1014.90 1015.06 1015.22 1015.94 1016.66 1016.06 1016.10 1016.26 1016.50 1016.94 1016.98 1017.22 1017.38 1017.66 1017.86 1018.02 1018.22 1018.38 1018.62 1018.74 1018.86 1018.98 1019.10
1014.50 1014.34 1014.18 1013.70 1013.26 1013.30 1013.38 1013.14 1013.22 1013.54 1013.62 1013.82 1013.90 1013.86 1013.94 1013.98 1013.98 1014.10 1014.22 1014.46 1014.94 1015.38 1015.26 1015.86 1016.42 1016.02 1016.18 1016.38 1016.58 1016.90 1017.14 1017.30 1017.46 1017.62 1017.86 1018.06 1018.26 1018.46 1018.70 1018.78 1018.86 1018.98
1014.42 1014.26 1014.06 1013.70 1013.46 1013.50 1013.42 1013.18 1013.10 1013.22 1013.42 1013.62 1013.70 1013.74 1013.78 1013.78 1013.78 1013.90 1014.02 1014.22 1014.54 1015.10 1015.46 1015.38 1015.90 1016.10 1016.02 1016.18 1016.42 1016.66 1016.90 1017.14 1017.22 1017.38 1017.58 1017.86 1018.18 1018.30 1018.50 1018.70 1018.86 1018.94
1014.50 1014.18 1013.90 1013.70 1013.58 1013.50 1013.46 1013.34 1013.26 1013.14 1013.18 1013.34 1013.46 1013.62 1013.74 1013.74 1013.70 1013.74 1013.90 1014.06 1014.34 1014.70 1015.14 1015.26 1015.58 1015.90 1015.90 1016.02 1016.18 1016.42 1016.70 1016.90 1017.06 1017.18 1017.34 1017.58 1017.82 1018.10 1018.38 1018.58 1018.70 1018.90
1014.98 1014.42 1014.06 1013.82 1013.66 1013.54 1013.42 1013.30 1013.34 1013.34 1013.38 1013.42 1013.50 1013.58 1013.58 1013.66 1013.70 1013.74 1013.90 1014.02 1014.10 1014.38 1014.78 1015.02 1015.38 1015.70 1015.74 1015.90 1016.06 1016.26 1016.46 1016.66 1016.82 1016.98 1017.14 1017.34 1017.58 1017.82 1018.10 1018.34 1018.58 1018.62
1015.38 1014.94 1014.54 1014.14 1013.82 1013.62 1013.34 1013.26 1013.22 1013.26 1013.54 1013.78 1013.74 1013.62 1013.66 1013.66 1013.66 1013.74 1013.82 1013.90 1013.94 1014.06 1014.38 1014.70 1015.14 1015.46 1015.46 1015.62 1015.90 1016.18 1016.38 1016.54 1016.62 1016.74 1016.90 1017.14 1017.38 1017.62 1017.86 1018.10 1018.26 1018.42
1015.74 1015.22 1014.82 1014.38 1013.86 1013.42 1013.06 1013.02 1012.98 1012.82 1012.86 1012.82 1012.82 1013.22 1013.46 1013.62 1013.70 1013.78 1013.78 1013.82 1013.94 1014.02 1014.14 1014.38 1014.90 1015.22 1015.34 1015.50 1015.78 1016.06 1016.26 1016.42 1016.58 1016.66 1016.78 1016.98 1017.18 1017.42 1017.62 1017.78 1017.90 1018.06
1016.10 1015.50 1015.06 1014.50 1013.82 1013.26 1012.86 1012.74 1012.70 1012.78 1012.94 1012.94 1012.98 1012.90 1012.94 1013.22 1013.46 1013.58 1013.66 1013.70 1013.82 1013.90 1013.94 1014.18 1014.70 1015.02 1015.14 1015.34 1015.58 1015.82 1016.06 1016.26 1016.42 1016.58 1016.74 1016.90 1017.10 1017.34 1017.54 1017.74 1017.90 1018.02
1016.26 1015.70 1015.18 1014.66 1013.86 1013.22 1012.82 1012.58 1012.42 1012.42 1012.50 1012.58 1012.54 1012.66 1012.50 1012.38 1012.82 1013.10 1013.38 1013.62 1013.78 1013.74 1013.82 1014.10 1014.50 1014.66 1014.86 1015.10 1015.38 1015.70 1015.86 1016.10 1016.30 1016.50 1016.62 1016.82 1017.14 1017.50 1017.70 1017.82 1017.94 1018.06
1016.38 1015.90 1015.34 1014.78 1013.98 1013.26 1012.78 1012.46 1012.30 1012.22 1012.26 1012.34 1012.38 1012.42 1012.38 1012.22 1012.46 1012.90 1012.98 1013.30 1013.66 1013.74 1013.74 1013.98 1014.22 1014.46 1014.70 1014.90 1015.02 1015.30 1015.70 1015.90 1016.14 1016.30 1016.46 1016.74 1017.14 1017.54 1017.90 1018.06 1018.14 1018.14
1016.54 1016.02 1015.50 1014.94 1014.30 1013.46 1012.74 1012.38 1012.22 1012.14 1012.10 1012.10 1012.14 1012.26 1012.26 1012.22 1012.38 1012.78 1012.90 1013.22 1013.46 1013.42 1013.62 1013.82 1014.06 1014.38 1014.66 1014.90 1014.98 1015.14 1015.38 1015.74 1015.90 1016.14 1016.38 1016.62 1016.90 1017.30 1017.70 1018.22 1018.46 1018.50
1016.94 1016.26 1015.74 1015.18 1014.54 1013.90 1013.02 1012.34 1012.10 1012.06 1012.06 1011.98 1012.06 1012.22 1012.30 1012.42 1012.26 1012.34 1012.74 1013.14 1013.38 1013.34 1013.46 1013.78 1014.10 1014.46 1014.66 1014.82 1014.94 1015.06 1015.18 1015.42 1015.70 1015.98 1016.26 1016.50 1016.86 1017.30 1017.82 1018.22 1018.38 1018.62
1017.34 1016.70 1016.14 1015.50 1014.90 1014.22 1013.42 1012.58 1012.14 1012.02 1012.02 1012.14 1012.18 1012.02 1012.26 1012.46 1012.42 1012.46 1012.78 1013.18 1013.26 1013.18 1013.58 1013.98 1014.10 1014.50 1014.70 1014.86 1014.90 1015.02 1015.18 1015.38 1015.70 1015.94 1016.18 1016.54 1016.98 1017.42 1017.82 1018.14 1018.46 1018.66
1017.62 1017.10 1016.62 1016.06 1015.38 1014.74 1014.10 1013.46 1012.70 1012.18 1011.94 1012.02 1012.10 1012.30 1012.50 1012.82 1012.90 1012.78 1012.98 1013.22 1013.34 1013.34 1013.78 1014.18 1014.34 1014.70 1014.74 1014.90 1015.10 1015.26 1015.34 1015.50 1015.98 1016.22 1016.62 1016.94 1017.26 1017.62 1017.94 1018.14 1018.38 1018.46
1017.86 1017.42 1016.98 1016.50 1015.90 1015.34 1014.86 1014.46 1014.30 1013.82 1013.34 1013.14 1012.78 1012.86 1013.02 1013.10 1013.38 1013.30 1013.42 1013.58 1013.74 1013.86 1014.10 1014.42 1014.82 1015.02 1015.02 1015.14 1015.30 1015.38 1015.50 1015.74 1016.30 1016.66 1017.10 1017.54 1017.90 1018.14 1018.26 1018.38 1018.54 1018.66
1018.34 1017.90 1017.34 1016.94 1016.42 1015.98 1015.62 1015.38 1015.18 1014.98 1014.66 1014.50 1014.50 1013.78 1013.86 1013.78 1014.02 1014.06 1014.14 1014.18 1014.22 1014.22 1014.26 1014.62 1015.18 1015.26 1015.38 1015.46 1015.38 1015.46 1015.54 1016.06 1016.54 1016.94 1017.38 1017.82 1018.22 1018.50 1018.62 1018.74 1018.82 1018.90
1018.82 1018.38 1017.82 1017.42 1017.02 1016.50 1016.30 1016.14 1015.94 1015.66 1015.46 1015.22 1015.38 1015.14 1014.58 1014.74 1014.82 1014.94 1015.14 1015.26 1015.18 1014.86 1014.70 1015.14 1015.46 1015.70 1015.94 1016.10 1015.66 1015.46 1015.62 1016.30 1016.82 1017.30 1017.78 1018.10 1018.54 1018.78 1018.90 1019.02 1019.18 1019.30
1019.34 1018.82 1018.34 1017.94 1017.62 1017.22 1016.94 1016.74 1016.50 1016.26 1016.14 1016.06 1016.18 1016.22 1015.50 1015.22 1015.42 1015.46 1015.74 1015.98 1016.06 1016.10 1015.86 1015.58 1015.86 1016.02 1016.18 1016.42 1016.38 1015.82 1015.46 1016.22 1016.86 1017.42 1018.18 1018.50 1018.90 1019.18 1019.30 1019.42 1019.50 1019.50
1019.86 1019.26 1018.86 1018.50 1018.18 1017.90 1017.50 1017.14 1016.98 1016.98 1016.74 1016.50 1016.74 1016.94 1016.38 1015.70 1015.78 1016.06 1016.42 1016.66 1016.66 1016.98 1016.98 1016.66 1016.38 1016.42 1016.46 1016.62 1016.62 1016.50 1016.22 1016.38 1016.82 1017.38 1018.14 1018.82 1018.98 1019.34 1019.62 1019.78 1019.94 1020.06
1020.26 1019.78 1019.34 1019.02 1018.74 1018.46 1018.06 1017.62 1017.34 1017.30 1017.38 1016.98 1017.14 1017.54 1016.86 1016.14 1016.34 1016.78 1017.06 1017.46 1017.34 1017.38 1017.66 1017.70 1017.50 1017.34 1017.30 1017.02 1017.02 1016.94 1016.86 1016.78 1016.90 1017.18 1018.14 1018.82 1019.18 1019.26 1019.50 1019.98 1020.14 1020.30
Thickness
5631 5632 5631 5631 5632 5633 5631 5632 5633 5633 5631 5631 5631 5631 5632 5633 5634 5634 5636 5638 5638 5636 5634 5633 5631 5630 5629 5627 5628 5632 5634 5633 5633 5633 5632 5632 5631 5630 5629 5629 5629 5628
5631 5634 5634 5633 5632 5633 5632 5630 5630 5630 5629 5629 5628 5627 5628 5629 5627 5626 5629 5632 5634 5633 5631 5631 5631 5630 5629 5628 5628 5631 5633 5632 5632 5632 5631 5630 5631 5630 5629 5629 5629 5628
5629 5631 5633 5633 5633 5633 5631 5629 5629 5628 5627 5626 5627 5628 5630 5632 5631 5627 5625 5627 5630 5631 5630 5630 5630 5630 5630 5629 5627 5630 5632 5632 5631 5631 5630 5630 5630 5630 5629 5628 5628 5627
5624 5624 5627 5629 5631 5630 5630 5630 5629 5627 5623 5621 5624 5628 5630 5632 5633 5632 5629 5627 5627 5628 5628 5630 5630 5630 5630 5628 5626 5629 5631 5631 5630 5629 5629 5629 5630 5629 5629 5627 5626 5626
5617 5618 5620 5625 5628 5630 5630 5632 5630 5627 5624 5621 5621 5624 5626 5628 5629 5629 5630 5630 5628 5625 5625 5629 5630 5629 5629 5629 5628 5628 5629 5628 5627 5627 5627 5626 5627 5627 5628 5626 5625 5624
5613 5613 5616 5620 5626 5629 5629 5630 5630 5629 5627 5624 5623 5624 5626 5627 5627 5627 5627 5629 5630 5627 5623 5626 5629 5628 5628 5628 5627 5626 5627 5626 5625 5624 5625 5625 5624 5625 5625 5625 5623 5623
5609 5610 5612 5617 5624 5627 5625 5627 5628 5628 5627 5626 5626 5626 5626 5627 5627 5628 5627 5627 5628 5628 5624 5623 5625 5627 5627 5625 5625 5625 5625 5624 5624 5623 5623 5623 5622 5622 5622 5622 5622 5621
5606 5608 5610 5615 5622 5623 5623 5625 5626 5625 5624 5624 5625 5625 5626 5627 5627 5628 5628 5627 5626 5625 5624 5622 5621 5623 5625 5624 5623 5623 5623 5622 5622 5622 5621 5621 5620 5619 5619 5619 5619 5619
5605 5606 5609 5613 5618 5619 5620 5623 5624 5623 5623 5623 5623 5624 5624 5625 5626 5626 5627 5627 5625 5622 5622 5622 5619 5619 5622 5622 5622 5622 5621 5621 5621 5621 5621 5619 5618 5617 5616 5616 5616 5616
5602 5605 5608 5611 5615 5616 5617 5619 5620 5621 5622 5622 5622 5622 5622 5623 5624 5625 5624 5625 5625 5622 5621 5621 5619 5618 5619 5620 5620 5621 5620 5620 5620 5620 5620 5618 5617 5616 5614 5613 5613 5612
5598 5601 5605 5608 5611 5613 5614 5615 5616 5618 5619 5619 5620 5620 5621 5622 5621 5622 5622 5622 5624 5623 5621 5620 5618 5618 5618 5619 5618 5618 5618 5618 5619 5619 5619 5617 5616 5615 5613 5611 5610 5610
5594 5598 5601 5604 5607 5610 5613 5613 5614 5616 5616 5615 5616 5617 5618 5619 5619 5619 5620 5620 5622 5622 5621 5620 5618 5617 5618 5618 5617 5616 5616 5616 5617 5617 5617 5616 5615 5614 5612 5610 5609 5610
5590 5594 5597 5601 5605 5609 5613 5614 5615 5615 5615 5615 5616 5617 5616 5615 5616 5616 5617 5618 5618 5619 5620 5620 5617 5616 5617 5617 5615 5615 5613 5613 5614 5614 5615 5615 5613 5612 5610 5609 5609 5610
5586 5591 5595 5599 5604 5608 5612 5615 5616 5615 5614 5614 5616 5617 5616 5616 5615 5614 5615 5615 5616 5617 5619 5619 5616 5615 5616 5616 5614 5613 5612 5611 5612 5612 5612 5612 5610 5609 5608 5608 5607 5607
5582 5587 5592 5596 5602 5607 5610 5613 5616 5616 5614 5614 5615 5615 5617 5619 5617 5615 5615 5614 5614 5616 5617 5616 5614 5614 5614 5614 5613 5612 5610 5610 5610 5610 5610 5609 5607 5605 5604 5604 5603 5604
5578 5583 5588 5593 5599 5604 5608 5612 5614 5614 5614 5614 5614 5614 5616 5618 5616 5614 5614 5614 5612 5613 5614 5613 5613 5613 5612 5613 5612 5611 5609 5608 5607 5608 5608 5606 5604 5602 5600 5599 5599 5599
5574 5579 5584 5589 5595 5600 5605 5609 5610 5612 5613 5613 5613 5613 5613 5614 5614 5612 5613 5612 5611 5611 5612 5610 5610 5610 5609 5609 5610 5609 5608 5606 5606 5605 5605 5604 5602 5600 5596 5594 5593 5594
5568 5573 5578 5583 5589 5594 5600 5606 5608 5608 5609 5610 5610 5610 5610 5610 5610 5610 5610 5608 5608 5609 5609 5607 5606 5606 5605 5605 5606 5606 5606 5605 5604 5603 5603 5601 5599 5596 5593 5590 5589 5588
5562 5567 5571 5577 5582 5587 5594 5600 5603 5605 5605 5606 5606 5606 5606 5604 5604 5606 5605 5603 5604 5606 5604 5603 5602 5602 5601 5601 5602 5602 5602 5601 5601 5600 5599 5598 5596 5592 5589 5587 5585 5584
5557 5561 5565 5569 5574 5580 5585 5589 5594 5597 5600 5602 5602 5602 5600 5597 5597 5599 5599 5598 5599 5600 5599 5597 5597 5596 5596 5596 5596 5596 5597 5596 5595 5595 5594 5592 5589 5587 5585 5583 5583 5582
5552 5555 5559 5562 5567 5572 5575 5578 5581 5584 5588 5589 5591 5593 5592 5589 5589 5591 5592 5592 5592 5593 5592 5590 5590 5590 5590 5590 5591 5591 5592 5591 5590 5588 5586 5584 5582 5580 5579 5578 5578 5578
5546 5549 5552 5555 5559 5563 5566 5567 5569 5571 5573 5575 5576 5580 5581 5581 5581 5581 5582 5582 5584 5586 5586 5584 5582 5583 5583 5583 5585 5587 5587 5585 5583 5581 5579 5577 5575 5573 5573 5572 5572 5573
5539 5543 5546 5548 5551 5555 5556 5558 5559 5560 5563 5564 5564 5566 5570 5572 5571 5571 5571 5571 5573 5576 5578 5577 5576 5575 5575 5575 5578 5582 5582 5580 5577 5575 5573 5571 5569 5567 5567 5566 5566 5566
5531 5535 5539 5541 5543 5546 5548 5549 5551 5551 5552 5554 5553 5554 5560 5563 5562 5561 5561 5561 5563 5564 5566 5569 5570 5568 5568 5568 5569 5574 5577 5575 5572 5569 5566 5564 5562 5560 5560 5560 5559 5559
5523 5527 5531 5533 5534 5537 5539 5542 5544 5543 5543 5546 5545 5543 5549 5555 5554 5552 5551 5551 5553 5553 5553 5557 5560 5560 5561 5561 5561 5565 5568 5569 5568 5565 5560 5557 5556 5555 5554 5553 5553 5553
5516 5519 5523 5525 5527 5528 5530 5533 5536 5536 5535 5537 5537 5535 5541 5547 5546 5543 5541 5541 5543 5544 5543 5545 5546 5548 5550 5553 5554 5557 5559 5560 5562 5560 5556 5552 5550 5549 5548 5546 5546 5546